Weather History for Barksdale AFB, LA

Change the Weather History Date:

Thursday, September 20, 2012

  Actual Average Record
Temperature  
Mean Temperature 68 °F -  
Max Temperature 82 °F 82 °F 100 °F (2005)
Min Temperature 53 °F 62 °F 53 °F (2006)
Cooling Degree Days 2    
Growing Degree Days 18 (Base 50)    
Moisture  
Dew Point 55 °F    
Average Humidity 68    
Maximum Humidity 95    
Minimum Humidity 36    
Precipitation  
Precipitation 0.00 in - - ()
Sea Level Pressure  
Sea Level Pressure 30.06 in    
Wind  
Wind Speed 2 mph (SSE)    
Max Wind Speed 7 mph    
Max Gust Speed -    
Visibility 10 miles    
Events      
Averages and records for this station are not official NWS values.
T = Trace of Precipitation, MM = Missing Value Source: NWS Daily Summary

Daily Weather History Graph

Daily Weather History Graph

Search for Another Location

Airport:

Trip Planner

Search our weather history database for the weather conditions in past years. The results will help you decide how hot, cold, wet, or windy it might be!

Date:

Astronomy

Sep. 20, 2012 Rise Set
Actual Time 7:01 AM CDT 7:13 PM CDT
Civil Twilight 6:37 AM CDT 7:37 PM CDT
Nautical Twilight 6:08 AM CDT 8:06 PM CDT
Astronomical Twilight 5:39 AM CDT 8:35 PM CDT
Moon 12:01 PM CDT (9/20) 10:35 PM CDT (9/20)
Length of Visible Light 13h 00m
Length of Day
12h 11m
Waxing Crescent, 27% of the Moon is Illuminated
Sep 20
Waxing Crescent
Sep 22
First Quarter
Sep 29
Full
Oct 8
Last Quarter
Oct 15
New

Hourly Weather History & Observations

Time (CDT) Temp. Heat Index Dew Point Humidity Pressure Visibility Wind Dir Wind Speed Gust Speed Precip Events Conditions
12:55 AM 59.4 °F - 54.7 °F 84% 30.09 in 10.0 mi Calm Calm - N/A   Clear
1:55 AM 59.0 °F - 54.3 °F 84% 30.09 in 10.0 mi Calm Calm - N/A   Clear
2:55 AM 55.6 °F - 54.0 °F 94% 30.09 in 10.0 mi SE 3.5 mph - N/A   Clear
3:55 AM 55.8 °F - 52.9 °F 90% 30.08 in 10.0 mi Calm Calm - N/A   Clear
4:55 AM 55.9 °F - 53.1 °F 90% 30.08 in 10.0 mi Calm Calm - N/A   Clear
5:55 AM 54.7 °F - 52.7 °F 93% 30.08 in 10.0 mi Calm Calm - N/A   Clear
6:55 AM 53.8 °F - 52.3 °F 95% 30.10 in 10.0 mi Calm Calm - N/A   Clear
7:55 AM 57.2 °F - 54.1 °F 89% 30.11 in 10.0 mi Calm Calm - N/A   Clear
8:55 AM 62.6 °F - 56.7 °F 81% 30.11 in 10.0 mi SSE 4.6 mph - N/A   Clear
9:55 AM 69.3 °F - 54.3 °F 59% 30.12 in 10.0 mi South 5.8 mph - N/A   Clear
10:55 AM 73.4 °F - 52.7 °F 48% 30.12 in 10.0 mi SSW 5.8 mph - N/A   Clear
11:55 AM 76.1 °F - 52.5 °F 44% 30.11 in 10.0 mi Variable 4.6 mph - N/A   Clear
12:55 PM 78.3 °F - 51.3 °F 39% 30.09 in 10.0 mi South 3.5 mph - N/A   Clear
1:55 PM 80.1 °F - 50.5 °F 36% 30.06 in 10.0 mi Calm Calm - N/A   Clear
2:55 PM 81.9 °F - 52.3 °F 36% 30.04 in 10.0 mi SSE 5.8 mph - N/A   Clear
3:55 PM 82.6 °F 81.6 °F 53.8 °F 37% 30.02 in 10.0 mi East 4.6 mph - N/A   Clear
4:55 PM 82.6 °F 81.6 °F 53.6 °F 37% 30.01 in 10.0 mi ESE 4.6 mph - N/A   Clear
5:55 PM 81.3 °F 80.9 °F 54.7 °F 40% 30.00 in 10.0 mi ESE 6.9 mph - N/A   Clear
6:55 PM 75.6 °F - 59.4 °F 57% 30.00 in 10.0 mi SE 5.8 mph - N/A   Clear
7:55 PM 70.5 °F - 60.4 °F 70% 30.00 in 10.0 mi SE 4.6 mph - N/A   Clear
8:55 PM 67.5 °F - 60.1 °F 77% 30.01 in 10.0 mi SE 3.5 mph - N/A   Clear
9:55 PM 65.8 °F - 58.3 °F 77% 30.02 in 10.0 mi SSE 3.5 mph - N/A   Clear
10:55 PM 63.9 °F - 58.5 °F 83% 30.03 in 10.0 mi SE 4.6 mph - N/A   Clear
11:55 PM 63.7 °F - 58.5 °F 83% 30.02 in 10.0 mi SE 4.6 mph - N/A   Clear